Torna al catalogo

COSMOS 252 DEB

AttivoLEO
NORAD 3557·DEBRIS·🇷🇺 Russia

Lanciato Nov 1, 1968 da Baikonur Cosmodrome

Loading…

Prossimi Passaggi (prossime 24 ore)

TLE

AggiornatoSource: Space-Track

Epoca: Sep 14, 2026, 07:49 UTC

1 03557U 68097K   26257.32618385  .00000218  00000-0  12456-3 0  9990
2 03557  62.3194  29.0716 0811603 270.6585  80.1593 13.24423367766015

Traccia COSMOS 252 DEB in tempo reale con AllMySat

Download on the App Store